STARLINK-32778 (62603 NORAD) Tracking and Keplerian Element Data

This shows tracking and keplerian element data for the satellite.

Feedback or suggestion? Click here.




ElementValue
Catalog62603
NameSTARLINK-32778
Epoch Orbit5333
Epoch Day353.75355032
Epoch Year2025
RAAN9.842
Inclination43.0027
Eccentricity0.0001566
Argument of Perigee278.3204
Mean Anonmoly81.747
Mean Motion15.27600881
Decay Rate0.00023252
L11 62603U 25008S 25353.75355032 .00023252 00000+0 85126-3 0 9998
L22 62603 43.0027 9.8420 0001566 278.3204 81.7470 15.27600881 53331



Live tracking and technical data element details for STARLINK-32778 (NORAD 62603). STARLINK-32778 can be tracked NOW for your location showing map with azimuth and elevation plus other details from your city location.







IsCatalogInMostPopularTable: catalog: 62603, numindb: 228
Update: records affected: 1



GetName: 62603 STARLINK-32778

Hit Count: updated at: Sat, 07 Mar 2026 05:39:49 GMT